Regional Weather Roundup
Issued by NWS Columbia, SC

Home | Current Version | Previous Version | Text Only | Print | Product List | Glossary On
Versions: 1 2 3 4 5 6 7 8 9 10 11 12 13 14 15 16 17 18 19 20 21 22 23 24 25 26 27 28 29 30 31 32 33 34 35 36 37 38 39 40 41 42 43 44 45 46 47 48 49 50
000
ASUS42 KCAE 170610
RWRCAE
REGIONAL WEATHER ROUNDUP
NATIONAL WEATHER SERVICE COLUMBIA SC
200 AM EDT WED SEP 17 2014

NOTE: "FAIR" INDICATES FEW OR NO CLOUDS BELOW 12,000 FEET WITH NO
SIGNIFICANT WEATHER AND/OR OBSTRUCTIONS TO VISIBILITY.

NOT ALL STATIONS ARE QUALITY CONTROLLED BY THE NATIONAL
WEATHER SERVICE. USE DATA WITH CAUTION...ESPECIALLY
DEWPOINT OBSERVATIONS.

SCZ001>056-GAZ040-063>065-077-170700-
...UPSTATE SOUTH CAROLINA...

CITY           SKY/WX    TMP DP  RH WIND       PRES   REMARKS
ANDERSON       CLEAR     67  65  93 CALM      29.97F
6HR MIN TEMP:  66; 6HR MAX TEMP:  79;

LIBERTY        FAIR      64  64 100 MISG      29.98S
6HR MIN TEMP:  62; 6HR MAX TEMP:  90;

SPARTANBURG    FAIR      72  70  94 NE5       29.99R
CLEMSON        CLEAR     77  66  68 CALM      29.99S
6HR MIN TEMP:  72; 6HR MAX TEMP:  89;

GREENVILLE     CLOUDY    71  64  78 NE10      30.00S
6HR MIN TEMP:  68; 6HR MAX TEMP:  73;

GREENWOOD      CLEAR     67  64  90 NE6       29.98S
6HR MIN TEMP:  67; 6HR MAX TEMP:  79;

GREER          CLOUDY    69  66  90 N5        29.98S
6HR MIN TEMP:  67; 6HR MAX TEMP:  70;

ROCK HILL      CLOUDY    67  66  97 CALM      30.00S
6HR MIN TEMP:  67; 6HR MAX TEMP:  76; 6HR PCP:  0.29;

CHESTER        TSTM      70  68  94 E5        30.03F
LAURENS        CLOUDY    66 N/A N/A CALM      29.98F


...CENTRAL SOUTH CAROLINA...

CITY           SKY/WX    TMP DP  RH WIND       PRES   REMARKS
COLUMBIA APT   MOCLDY    74  68  81 NE3       29.95R
6HR MIN TEMP:  73; 6HR MAX TEMP:  83;

COLUMBIA OWENS CLEAR     73  69  87 CALM      29.96S
6HR MIN TEMP:  73; 6HR MAX TEMP:  82;

DARLINGTON     MOCLDY    66  63  88 CALM      29.99F
6HR MIN TEMP:  66; 6HR MAX TEMP:  75; 6HR PCP:  0.23;

FLORENCE       CLOUDY    71  63  75 N9        29.99S
6HR MIN TEMP:  71; 6HR MAX TEMP:  77;

MCENTIRE ANGB  PTCLDY    72  70  95 NE7       29.97R
6HR MIN TEMP:  70; 6HR MAX TEMP:  77;

ORANGEBURG     MOCLDY    71  68  90 SE3       29.94F
6HR MIN TEMP:  71; 6HR MAX TEMP:  76; 6HR PCP: TRACE;

SUMTER SHAW    MOCLDY    71  65  82 NE12      29.95F
6HR MIN TEMP:  71; 6HR MAX TEMP:  79; 6HR PCP: TRACE;

NEWBERRY       FAIR      68  68 100 NW3       29.99S
AIKEN          FAIR      68  68 100 CALM      29.98S
BARNWELL       FAIR      72  70  94 CALM      29.94R
MANNING        FAIR      72 N/A N/A CALM      29.97R
CAMDEN         MOCLDY    66  66 100 NE8       29.99S
LANCASTER      LGT RAIN  66  66 100 NE5       29.99F
WINNSBORO      CLOUDY    68  66  94 NE14G20   29.98R


...EASTERN AND COASTAL SOUTH CAROLINA...

CITY           SKY/WX    TMP DP  RH WIND       PRES   REMARKS
MYRTLE BEACH   MOCLDY    73  70  88 N7        29.96F
6HR MIN TEMP:  73; 6HR MAX TEMP:  79;

N MYRTLE BCH   MOCLDY    74  72  93 N5        29.95F
6HR MIN TEMP:  73; 6HR MAX TEMP:  79;

CONWAY         FAIR      70  70 100 CALM      29.97F FOG
HARTSVILLE     CLOUDY    68  59  73 CALM      30.00S
FLORENCE       CLOUDY    71  63  75 N9        29.99S
6HR MIN TEMP:  71; 6HR MAX TEMP:  77;

DARLINGTON     MOCLDY    66  63  88 CALM      29.99F
6HR MIN TEMP:  66; 6HR MAX TEMP:  75; 6HR PCP:  0.23;

CHARLESTON APT MOCLDY    73  70  90 CALM      29.95S
6HR MIN TEMP:  72; 6HR MAX TEMP:  74; 6HR PCP:  0.12;

MOUNT PLEASANT FAIR      72  72 100 CALM      29.95R FOG
WALTERBORO     FOG       72 N/A N/A E3        29.96S VSB 1/4
BEAUFORT       CLOUDY    74  72  93 W5        29.93F
6HR MIN TEMP:  74; 6HR MAX TEMP:  76; 6HR PCP:  0.10;



...EASTERN GEORGIA...

CITY           SKY/WX    TMP DP  RH WIND       PRES   REMARKS
AUGUSTA BUSH F PTCLDY    73  70  90 W7        29.93F
6HR MIN TEMP:  72; 6HR MAX TEMP:  77;

AUGUSTA DANIEL PTCLDY    73  70  90 W5        29.95S
6HR MIN TEMP:  71; 6HR MAX TEMP:  82; 6HR PCP:  0.77;

THOMSON        PTCLDY    71  71 100 CALM      30.00S
6HR MIN TEMP:  71; 6HR MAX TEMP:  80;

WASHINGTON     FAIR      73  73 100 CALM      29.96S
CLAXTON        FAIR     N/A N/A N/A CALM      29.94S
SYLVANIA       CLEAR     73  72  98 CALM      29.94S
6HR MIN TEMP:  73; 6HR MAX TEMP:  82;

STATESBORO     CLEAR     70  70 100 SE3       29.93F
6HR MIN TEMP:  70; 6HR MAX TEMP:  79;

SAVANNAH       PTCLDY    71  68  90 CALM      29.93F
6HR MIN TEMP:  71; 6HR MAX TEMP:  77; 6HR PCP:  0.07;



...SOUTHERN NORTH CAROLINA...

CITY           SKY/WX    TMP DP  RH WIND       PRES   REMARKS
CHARLOTTE      CLOUDY    66  63  90 SE5       29.99F
6HR MIN TEMP:  65; 6HR MAX TEMP:  75; 6HR PCP:  0.37;

MONROE         CLOUDY    65  63  93 NE5       29.98F
6HR MIN TEMP:  64; 6HR MAX TEMP:  72; 6HR PCP:  2.17;

WADESBORO      CLOUDY    68  66  94 CALM      29.99R FOG
6HR MIN TEMP:  67; 6HR MAX TEMP:  79; 6HR PCP:  0.04;

ROCKINGHAM     RAIN      65  64  96 SE7       29.97F
6HR MIN TEMP:  65; 6HR MAX TEMP:  78; 6HR PCP:  0.07;

RUTHERFORDTON  MOCLDY    67  64  89 CALM      30.02R
6HR MIN TEMP:  65; 6HR MAX TEMP:  74;

ASHEVILLE      CLOUDY    65  61  87 N9        30.05S
6HR MIN TEMP:  65; 6HR MAX TEMP:  70;


$$



USA.gov is the U.S. government's official web portal to all federal, state and local government web resources and services.